Meath Environmental Platform

Observations

Time Sensor AQI SAQ Temp °C Hum % Pres Pa CO μg/m³ H₂S μg/m³ NO μg/m³ NO₂ μg/m³ O₃ μg/m³ SO₂ μg/m³ CO₂e PPM VOC PPM PM1 μg/m³ PM2.5 μg/m³ PM4 μg/m³ PM10 μg/m³ TPS µm
Tuesday 11 August 2026
08:49 Trim Patrick St 1 23.7 55 74,457 0.09 0 2.69 11.43 3.62 2.86 4.57 9.13 10.04
08:49 Trim Market St 1 27.9 45 64,503 0.3 0 0.94 9.46 0 0 0.71 3.17 3.49
08:48 Trim Patrick St 1 23.6 55 74,471 0.13 0 2.61 11.48 2.75 1.76 3.71 9.1 10.01
08:47 Trim Patrick St 1 23.5 57 74,495 0.17 0 2.8 8.02 0 2.93 3.71 8.22 9.04
08:46 Trim Patrick St 1 23.4 55 74,526 0.13 0 2.79 11.68 13.42 2.82 5.43 11.36 12.5
08:45 Trim Patrick St 1 23.4 55 74,542 0.14 0 2.65 10.8 5.05 2.2 3.71 9.09 10
08:41 Trim Patrick St 1 23.2 56 74,750 0.19 0 2.86 10.73 3.25 2.04 3.71 8.29 9.12
08:41 Trim Market St 1 27 48 62,347 0.44 0 1.14 9.96 0 0 0 2.02 2.99
08:40 Trim Market St 1 26.8 48 62,008 0.39 0 1.18 10.99 9.43 0 0 2.52 2.77
08:39 Trim Patrick St 1 23 57 74,939 0.26 0 3.23 11.09 6.07 2.57 3.71 8.22 9.05
08:39 Trim Market St 1 26.7 49 61,796 0.4 0 1.15 10.21 0 0 0 2.51 2.76
08:38 Trim Market St 1 26.6 49 61,524 0.4 0 1.19 10.48 0 0 0.71 3.53 4.52
08:37 Trim Market St 1 26.4 49 61,354 0.42 0 1.21 9.48 0 0 0.71 3.52 3.78
08:37 Trim Patrick St 1 22.8 58 75,063 0.29 0 3.33 12.77 1.25 2.29 2.86 8.18 9
08:36 Trim Market St 1 26.3 50 60,975 0.41 0 1.27 11.4 11.08 0 0.71 2.99 3.79
08:36 Trim Patrick St 1 22.7 58 75,171 0.31 0 3.4 11.74 0 1.28 3.71 8.16 8.97
08:35 Trim Market St 1 26.2 50 60,390 0.4 0 1.25 11.06 0 0 0 2.98 3.04
08:35 Trim Patrick St 1 22.6 58 75,312 0.29 0 3.81 10.61 0 2.31 3.71 8.16 8.97
08:34 Trim Market St 1 26 50 60,213 0.42 0 1.33 10.36 0 0 1.43 3.48 3.8
08:34 Trim Patrick St 1 22.5 58 75,473 0.27 0 3.85 12.3 6.24 2.52 3.71 8.14 8.96